Regional Weather Roundup
Issued by NWS

Home | Current Version | Previous Version | Text Only | Print | Product List | Glossary On
Versions: 1 2 3 4 5 6 7 8 9 10 11 12 13 14 15 16 17 18 19 20 21 22 23 24 25 26 27
000
ASUS42 KTBW 110416
RWRFL
FLORIDA REGIONAL WEATHER ROUNDUP
NATIONAL WEATHER SERVICE TAMPA BAY RUSKIN FL
1100 PM EST SAT DEC 10 2016

NOTE: "FAIR" INDICATES FEW OR NO CLOUDS BELOW 12,000 FEET WITH NO
SIGNIFICANT WEATHER AND/OR OBSTRUCTIONS TO VISIBILITY.

FLZ001>010-012>015-112-114-115-110500-
PANHANDLE FLORIDA

CITY           SKY/WX    TMP DP  RH WIND       PRES   REMARKS
PENSACOLA      CLEAR     40  30  67 N5        30.38S WCI  37
PENSACOLA NAS  CLEAR     35  29  78 CALM      30.38S
MILTON NAS     CLEAR     32  28  85 CALM      30.38
CRESTVIEW      CLEAR     30  27  88 CALM      30.40S
DUKE FIELD     FAIR      31  25  80 CALM      30.37S
VALPARAISO     PTCLDY    37  25  60 CALM      30.38S
MARY ESTHER    CLEAR     37  25  60 N5        30.37F WCI  34
PANAMA CITY    FAIR      41  28  60 N7        30.37S WCI  36
TYNDALL AFB    CLEAR     46  28  49 NE6       30.37S WCI  42
APALACHICOLA   CLEAR     44  30  57 NE6       30.35S WCI  41

STATION/POSITION SKY/WX   TEMP    WIND        PRES    WAVE   SWELL
                          AIR SEA DIR/SP/G            HT/PER HT/PER
                          (F)     (DEG/KT/KT) (MB)    (FT/S) (FT/S)
30.1N   87.6W              56 69   60/ 12/ 16 1028.6F   2/ 5
29.2N   88.2W              60 74   70/ 10/ 14 1027.8
28.8N   86.0W              62 74              1027.1F   4/ 6
PANAMA CITY BEAC           46 65   30/  3/  6 1028.7R
TOWER C                    59      80/ 21/ 22 1027.5F
28.5N   84.5W              65 73   90/ 19/ 23 1026.1R   5/ 6

$$
FLZ011-016>038-118-127-128-134-139-239-110500-
NORTH FLORIDA

CITY           SKY/WX    TMP DP  RH WIND       PRES   REMARKS
MARIANNA       CLEAR     38  33  82 CALM      30.39S
TALLAHASSEE    CLEAR     47  25  42 E8        30.37S WCI  43
PERRY          CLEAR    N/A N/A N/A CALM      30.38S
CROSS CITY     CLEAR     50  45  81 E6        30.36F
LAKE CITY      FAIR      46  45  93 NE5       30.37F WCI  44
GAINESVILLE    CLEAR     48  44  86 NE5       30.37S
WILLISTON      CLEAR     50  46  87 NE5       30.37S
PALATKA        MOCLDY    48  48 100 N3        30.37S
MAYPORT NAS    CLOUDY    60  52  74 NE15      30.37F
JACKSONVILLE   PTCLDY    45  43  93 N3        30.38F
JAX NAS        PTCLDY    51  47  86 N9        30.38F
FERNANDINA BEA CLOUDY    61  52  72 NE12G18   30.37F
ST AUGUSTINE   CLEAR     60  55  83 N12       30.36S
PALM COAST     FAIR      50  50 100 MISG      30.35S

STATION/POSITION SKY/WX   TEMP    WIND        PRES    WAVE   SWELL
                          AIR SEA DIR/SP/G            HT/PER HT/PER
                          (F)     (DEG/KT/KT) (MB)    (FT/S) (FT/S)
SHELL POINT      NOT AVBL
KEATON BEACH               48      60/ 10/ 12 1027.6F
CEDAR KEY                  52      50/ 13/ 15 1027.9F
FERNANDINA                 58 62   30/  7/ 12 1028.7F
30.7N   81.3W                 63                N/A     5/ 6
MAYPORT                    59 62   30/ 13/ 17 1028.5S
31.4N   80.9W              58 62   60/ 16/ 19 1029.8R   4/ 5   2/ 8
ST AUGUSTINE               63 64  360/ 10/ 11 1028.4F

$$
FLZ040-043>046-052-053-057-058-063-144-110500-
INTERIOR CENTRAL FLORIDA

CITY           SKY/WX    TMP DP  RH WIND       PRES   REMARKS
OCALA          CLEAR     50  45  81 N5        30.35S
THE VILLAGES     N/A     54  54 100 MISG      30.25S
LEESBURG       CLEAR     53  49  86 N6        30.35S
SANFORD        CLEAR     55  52  89 NW5       30.33S
ORLANDO EXEC   CLEAR     57  53  86 N3        30.32F
ORLANDO INTL   PTCLDY    56  52  86 N7        30.33S
KISSIMMEE      CLEAR     59  54  83 NE3       30.33S
WINTER HAVEN   CLEAR     57  52  83 NE7       30.33S
LAKELAND       CLEAR     55  54  94 NE7       30.32S
BARTOW         FAIR      59  52  77 NE7       30.32S
OKEECHOBEE     CLOUDY    63  57  82 NE5       30.29S

$$
FLZ041-047-054-059-064-141-147-110500-
EAST CENTRAL FLORIDA

CITY           SKY/WX    TMP DP  RH WIND       PRES   REMARKS
DAYTONA BEACH  PTCLDY    63  51  65 E5        30.34S
DELAND         CLEAR     52  50  93 NW3       30.34S
JFK SPACE CTR  CLEAR     65  52  63 E7        30.31F
CAPE CANAVERAL PTCLDY    67  55  64 E14       30.30F
PATRICK AFB    CLEAR     68  56  65 E18       30.30S
MELBOURNE      PTCLDY    68  56  65 E15       30.30F
VERO BEACH     MOCLDY    69  58  67 E13       30.30R
FT PIERCE      CLOUDY    70  60  70 E10       30.28S
STUART         CLOUDY    73  63  68 E14       30.29S

STATION/POSITION SKY/WX   TEMP    WIND        PRES    WAVE   SWELL
                          AIR SEA DIR/SP/G            HT/PER HT/PER
                          (F)     (DEG/KT/KT) (MB)    (FT/S) (FT/S)
TRIDENT PIER               67 71   50/ 11/ 17 1026.2F
28.4N   80.5W                 69                N/A     3/ 4

$$
FLZ050-056-061-142-242-148-248-149-249-151-251-155-255-
160-260-110500-
WEST CENTRAL FLORIDA

CITY           SKY/WX    TMP DP  RH WIND       PRES   REMARKS
CRYSTAL RIVER  FAIR      52  46  82 NE7       30.35S
INVERNESS      FAIR      52  50  93 NE7       30.35F
BROOKSVILLE    CLEAR     56  49  77 N12       30.34S
CLEARWATER AIR FAIR      57  54  88 NE5       30.31S
ST PETE CLEARW CLEAR     60  54  80 NE9       30.31S
TAMPA INTL     CLEAR     60  53  77 NE7       30.32S
TAMPA EXEC     CLEAR     59  54  82 NE3       30.33R
PLANT CITY     CLEAR     57  55  94 NE3       30.33F
MACDILL AFB    CLEAR     59  56  91 E15       30.31R
PETER O KNIGHT CLEAR     61  55  82 NE12      30.32S
ST PETERSBURG  CLEAR     61  56  83 E17       30.30S
SARASOTA       CLEAR     61  53  75 E12       30.28S
VENICE         FAIR      61  55  82 NE13      30.29S

STATION/POSITION SKY/WX   TEMP    WIND        PRES    WAVE   SWELL
                          AIR SEA DIR/SP/G            HT/PER HT/PER
                          (F)     (DEG/KT/KT) (MB)    (FT/S) (FT/S)
CLEARWATER BEACH           60 65   40/ 10/ 13 1026.6R
MIDDLE TAMPA BAY           63      80/ 12/ 16 1026.5R
VENICE                     62 68   50/ 10/ 12 1024.9F

$$
FLZ066-069-070-075>078-162-262-165-265-110500-
SOUTHWEST FLORIDA AND KEYS

CITY           SKY/WX    TMP DP  RH WIND       PRES   REMARKS
PUNTA GORDA    CLEAR     60  55  83 NE8       30.29S
FT MYERS       MOCLDY    66  58  75 NE10      30.25F
SOUTHWEST INTL MOCLDY    66  58  75 NE10      30.26F
NAPLES         CLOUDY    69  61  75 NE10      30.23F
MARCO ISLAND   PTCLDY    68  63  83 NE9       30.23F
MARATHON       LGT RAIN  74  70  87 NE16      30.18F
KEY WEST NAS   CLOUDY    71  68  90 NE13G23   30.19S
KEY WEST INTL  CLOUDY    73  70  90 NE12G25   30.19F

STATION/POSITION SKY/WX   TEMP    WIND        PRES    WAVE   SWELL
                          AIR SEA DIR/SP/G            HT/PER HT/PER
                          (F)     (DEG/KT/KT) (MB)    (FT/S) (FT/S)
NAPLES                        70              1023.7F
26.0N   85.6W              70 76   60/ 14/ 17 1024.9F   6/ 7   3/ 7
DRY TORTUGAS               73      60/ 21/ 23 1022.6S
SAND KEY                   73      60/ 23/ 28 1022.4F
LONG KEY                   71 74   30/ 20/ 23 1022.6R
MOLASSES REEF              76 78   80/ 24/ 29 1021.9

$$
FLZ067-068-071>074-168-172>174-110500-
SOUTHEAST FLORIDA

CITY           SKY/WX    TMP DP  RH WIND       PRES   REMARKS
W PALM BEACH   CLOUDY    72  62  71 E21G28    30.27S
BOCA RATON     MOCLDY    73  64  73 E22G29    30.25S
FT LAUDER-EXEC CLOUDY    72  64  76 E16       30.24S
FT LAUDERDALE  CLOUDY    73  66  78 NE16G23   30.23R
POMPANO BEACH  CLOUDY    72  67  84 NE15G29   30.24S
PEMBROKE PINES CLOUDY    72  65  78 E16G24    30.25S
OPA LOCKA      CLOUDY    73  66  78 NE15G23   30.24R
MIAMI          LGT RAIN  70  66  87 NE13      30.23S
WEST KENDALL   LGT RAIN  70  67  90 E14G24    30.22S
HOMESTEAD      HVY RAIN  72  72 100 NE18      30.21R FOG

STATION/POSITION SKY/WX   TEMP    WIND        PRES    WAVE   SWELL
                          AIR SEA DIR/SP/G            HT/PER HT/PER
                          (F)     (DEG/KT/KT) (MB)    (FT/S) (FT/S)
PORT EVERGLADES            74      60/ 22/ 27 1023.5
VIRGINIA KEY               72 81   60/ 18/ 27 1023.7R
LAKE WORTH                 73 76   70/ 24/ 28 1024.3S
FOWEY ROCKS                73 77   50/ 32/ 34 1023.5F

$$





USA.gov is the U.S. government's official web portal to all federal, state and local government web resources and services.